Regional Weather Roundup
Issued by NWS Nashville, TN

Home | Current Version | Previous Version | Text Only | Print | Product List | Glossary On
Versions: 1 2 3 4 5 6 7 8 9 10 11 12 13 14 15 16 17 18 19 20 21 22 23 24 25 26 27 28 29 30 31 32 33 34 35 36 37 38 39 40 41 42 43 44 45 46 47 48 49 50
000
ASUS44 KOHX 051110
RWROHX
MIDDLE TENNESSEE HOURLY WEATHER ROUNDUP
NATIONAL WEATHER SERVICE NASHVILLE TN
600 AM CDT WED AUG 05 2015

NOTE: "FAIR" INDICATES FEW OR NO CLOUDS BELOW 12,000 FEET WITH
NO SIGNIFICANT WEATHER AND/OR OBSTRUCTIONS TO VISIBILITY.

* THESE REPORTS ARE NOT UNDER NWS QUALITY CONTROL AND MAY NOT
  REPORT WEATHER SUCH AS PRECIPITATION AND FOG.


TNZ005>011-023>034-057-059-062>066-078-080-051200
...NORTHERN MIDDLE TENNESSEE...

CITY           SKY/WX    TMP DP  RH WIND       PRES   REMARKS
CLARKSVILLE    MOCLDY    73  69  87 NE3       30.00R
CROSSVILLE     MOCLDY    70  66  87 CALM      30.10R
DICKSON        MOCLDY    73  72  94 SE3       30.01S
LIVINGSTON     MOCLDY    75  66  73 SW5       30.07R
NASHVILLE      PTCLDY    77  71  82 NE3       30.01R
ROCKWOOD       MOCLDY    69  66  90 W3        30.09R
SMYRNA         PTCLDY    73  72  97 CALM      30.02R
$$
TNZ056-058-060-061-075>077-079-093>097-051200
...SOUTHERN MIDDLE TENNESSEE...

CITY           SKY/WX    TMP DP  RH WIND       PRES   REMARKS
COLUMBIA       CLEAR     73  73 100 CALM      30.00S
LEWISBURG      PTCLDY    71  70  97 CALM      30.01S
MCMINNVILLE    CLEAR     72  72 100 CALM      30.04S
SHELBYVILLE    PTCLDY    73  73 100 CALM      30.03R
TULLAHOMA      CLEAR     73  70  88 CALM      30.05R
WINCHESTER     PTCLDY    73  70  88 CALM      30.03S
$$


...KEY TO REMARKS...
VSB - VISIBILITY IN MILES
WCI - WIND CHILL INDEX
HX  - HEAT INDEX




USA.gov is the U.S. government's official web portal to all federal, state and local government web resources and services.